Claremore, OK

9:31 PM CDT on September 16, 2019 (GMT -0500)
Claremore Regional

Weather History for KGCM - August, 2019

Change the Weather History Date:

Sunday, August 25, 2019

  Actual Average (WUND) Record (WUND)
Temperature  
Mean Temperature 73 °F -  
Max Temperature 82 °F - - (-1)
Min Temperature 64 °F - - (-1)
Cooling Degree Days 8    
Growing Degree Days 23 (Base 50)    
Moisture  
Dew Point 69 °F    
Average Humidity 86    
Maximum Humidity 100    
Minimum Humidity 62    
Precipitation  
Precipitation 0.39 in - - ()
Sea Level Pressure  
Sea Level Pressure 29.88 in    
Wind  
Wind Speed 4 mph ()    
Max Wind Speed 9 mph    
Max Gust Speed -    
Visibility 9.2 miles    
Events Rain    
Averages and records for this station are not official NWS values.
T = Trace of Precipitation, MM = Missing Value Source: Averaged Metar Reports

Daily Weather History Graph

Daily Weather History Graph

Search for Another Location

Airport or City:

Astronomy

Aug. 25, 2019 Rise Set
Actual Time 6:47 AM CDT 7:59 PM CDT
Civil Twilight 6:21 AM CDT 8:26 PM CDT
Nautical Twilight 5:49 AM CDT 8:58 PM CDT
Astronomical Twilight 5:16 AM CDT 9:31 PM CDT
Moon 1:28 AM CDT (8/25) 4:15 PM CDT (8/25)
Length of Visible Light 14h 05m
Length of Day
13h 11m
Waning Crescent, 29% of the Moon is Illuminated
Aug 25
Waning Crescent
Aug 30
New
Sep 5
First Quarter
Sep 13
Full
Sep 21
Last Quarter

Hourly Weather History & Observations

Time (CDT) Temp. Heat Index Dew Point Humidity Pressure Visibility Wind Dir Wind Speed Gust Speed Precip Events Conditions
12:15 AM 71.6 °F - 69.8 °F 94% 29.97 in 10.0 mi East 4.6 mph - N/A   Clear
12:35 AM 71.6 °F - 69.8 °F 94% 29.96 in 10.0 mi East 4.6 mph - N/A   Clear
12:55 AM 71.6 °F - 69.8 °F 94% 29.96 in 10.0 mi ESE 4.6 mph - N/A   Scattered Clouds
1:15 AM 71.6 °F - 69.8 °F 94% 29.96 in 10.0 mi ESE 5.8 mph - N/A   Mostly Cloudy
1:55 AM 73.4 °F - 69.8 °F 88% 29.95 in 10.0 mi ESE 6.9 mph - N/A   Overcast
2:15 AM 71.6 °F - 69.8 °F 94% 29.94 in 10.0 mi ESE 6.9 mph - N/A   Overcast
2:35 AM 71.6 °F - 69.8 °F 94% 29.94 in 10.0 mi ESE 6.9 mph - N/A   Overcast
2:55 AM 71.6 °F - 69.8 °F 94% 29.93 in 10.0 mi ESE 5.8 mph - N/A   Overcast
3:15 AM 71.6 °F - 69.8 °F 94% 29.94 in 10.0 mi SE 4.6 mph - N/A   Overcast
3:35 AM 71.6 °F - 69.8 °F 94% 29.94 in 10.0 mi SE 5.8 mph - N/A   Overcast
3:55 AM 73.4 °F - 69.8 °F 88% 29.93 in 10.0 mi SSE 4.6 mph - N/A   Overcast
4:15 AM 73.4 °F - 71.6 °F 94% 29.94 in 10.0 mi SSE 4.6 mph - N/A   Overcast
4:35 AM 73.4 °F - 71.6 °F 94% 29.91 in 10.0 mi SE 6.9 mph - N/A   Overcast
4:55 AM 73.4 °F - 71.6 °F 94% 29.90 in 10.0 mi SE 5.8 mph - N/A   Overcast
5:15 AM 73.4 °F - 69.8 °F 88% 29.90 in 10.0 mi SE 5.8 mph - N/A   Overcast
5:35 AM 73.4 °F - 69.8 °F 88% 29.88 in 10.0 mi SE 9.2 mph - N/A   Overcast
5:55 AM 71.6 °F - 69.8 °F 94% 29.90 in 7.0 mi SE 8.1 mph - N/A   Mostly Cloudy
6:15 AM 71.6 °F - 69.8 °F 94% 29.89 in 7.0 mi SE 8.1 mph - N/A   Overcast
6:35 AM 71.6 °F - 69.8 °F 94% 29.91 in 7.0 mi SE 5.8 mph - N/A   Overcast
6:55 AM 73.4 °F - 71.6 °F 94% 29.91 in 7.0 mi SSE 3.5 mph - N/A   Overcast
7:15 AM 73.4 °F - 71.6 °F 94% 29.91 in 7.0 mi SSE 3.5 mph - N/A   Overcast
7:35 AM 73.4 °F - 71.6 °F 94% 29.90 in 7.0 mi ESE 4.6 mph - N/A   Overcast
7:55 AM 73.4 °F - 71.6 °F 94% 29.90 in 7.0 mi SE 3.5 mph - N/A   Overcast
8:15 AM 73.4 °F - 71.6 °F 94% 29.93 in 10.0 mi Calm Calm - N/A   Overcast
8:35 AM 73.4 °F - 71.6 °F 94% 29.94 in 7.0 mi SW 3.5 mph - N/A   Overcast
8:55 AM 75.2 °F - 71.6 °F 89% 29.94 in 10.0 mi SSW 4.6 mph - N/A   Overcast
9:35 AM 66.2 °F - 64.4 °F 94% 29.97 in 2.0 mi NNW 5.8 mph - 0.11 in Rain Rain
9:55 AM 64.4 °F - 64.4 °F 100% 29.96 in 2.0 mi Calm Calm - 0.27 in Rain Heavy Rain
10:15 AM 64.4 °F - 64.4 °F 100% 29.95 in 1.8 mi ENE 4.6 mph - 0.09 in Rain Heavy Rain
10:35 AM 64.4 °F - 64.4 °F 100% 29.94 in 5.0 mi East 5.8 mph - 0.12 in Rain Light Rain
10:55 AM 66.2 °F - 64.4 °F 94% 29.92 in 10.0 mi East 4.6 mph - 0.12 in   Scattered Clouds
11:15 AM 66.2 °F - 64.4 °F 94% 29.93 in 10.0 mi SE 5.8 mph - N/A   Scattered Clouds
11:55 AM 68.0 °F - 68.0 °F 100% 29.91 in 10.0 mi ESE 8.1 mph - N/A   Clear
12:15 PM 69.8 °F - 68.0 °F 94% 29.92 in 10.0 mi SE 4.6 mph - N/A Rain Light Rain
12:35 PM 69.8 °F - 68.0 °F 94% 29.91 in 10.0 mi Calm Calm - N/A Rain Light Rain
12:55 PM 69.8 °F - 68.0 °F 94% 29.90 in 10.0 mi South 3.5 mph - N/A   Overcast
1:15 PM 69.8 °F - 69.8 °F 100% 29.88 in 10.0 mi SE 4.6 mph - N/A   Scattered Clouds
1:35 PM 71.6 °F - 71.6 °F 100% 29.86 in 10.0 mi SE 8.1 mph - N/A   Clear
1:55 PM 77.0 °F - 69.8 °F 78% 29.87 in 10.0 mi SSE 3.5 mph - N/A   Clear
2:15 PM 78.8 °F - 69.8 °F 74% 29.87 in 10.0 mi South 4.6 mph - N/A   Clear
2:35 PM 78.8 °F - 69.8 °F 74% 29.86 in 10.0 mi South 3.5 mph - N/A   Scattered Clouds
2:55 PM 80.6 °F 83.9 °F 69.8 °F 70% 29.85 in 10.0 mi South 3.5 mph - N/A   Mostly Cloudy
3:15 PM 80.6 °F 83.9 °F 69.8 °F 70% 29.84 in 10.0 mi West 4.6 mph - N/A   Mostly Cloudy
3:35 PM 80.6 °F 83.9 °F 69.8 °F 70% 29.83 in 10.0 mi SSW 4.6 mph - N/A   Scattered Clouds
3:55 PM 80.6 °F 83.9 °F 69.8 °F 70% 29.83 in 10.0 mi West 4.6 mph - N/A   Scattered Clouds
4:15 PM 80.6 °F 83.2 °F 68.0 °F 65% 29.82 in 10.0 mi Calm Calm - N/A   Scattered Clouds
4:35 PM 80.6 °F 83.2 °F 68.0 °F 65% 29.81 in 10.0 mi Calm Calm - N/A   Scattered Clouds
4:55 PM 82.4 °F 85.4 °F 68.0 °F 62% 29.81 in 10.0 mi SW 4.6 mph - N/A   Scattered Clouds
5:15 PM 82.4 °F 85.4 °F 68.0 °F 62% 29.81 in 10.0 mi SSW 4.6 mph - N/A   Scattered Clouds
5:35 PM 82.4 °F 85.4 °F 68.0 °F 62% 29.81 in 10.0 mi SW 4.6 mph - N/A   Scattered Clouds
5:55 PM 82.4 °F 85.4 °F 68.0 °F 62% 29.81 in 10.0 mi SW 5.8 mph - N/A   Scattered Clouds
6:15 PM 80.6 °F 83.2 °F 68.0 °F 65% 29.80 in 10.0 mi Calm Calm - N/A   Scattered Clouds
6:35 PM 80.6 °F 83.2 °F 68.0 °F 65% 29.80 in 10.0 mi Calm Calm - N/A   Clear
6:55 PM 80.6 °F 83.2 °F 68.0 °F 65% 29.80 in 10.0 mi Calm Calm - N/A   Clear
7:35 PM 78.8 °F - 69.8 °F 74% 29.80 in 10.0 mi Calm Calm - N/A   Clear
7:55 PM 77.0 °F - 69.8 °F 78% 29.80 in 10.0 mi Calm Calm - N/A   Clear
8:15 PM 75.2 °F - 69.8 °F 83% 29.81 in 10.0 mi Calm Calm - N/A   Clear
8:35 PM 73.4 °F - 68.0 °F 83% 29.81 in 10.0 mi Calm Calm - N/A   Clear
8:55 PM 73.4 °F - 68.0 °F 83% 29.82 in 10.0 mi East 3.5 mph - N/A   Clear
9:15 PM 73.4 °F - 68.0 °F 83% 29.82 in 10.0 mi ESE 4.6 mph - N/A   Scattered Clouds
9:35 PM 73.4 °F - 66.2 °F 78% 29.83 in 10.0 mi ESE 3.5 mph - N/A   Scattered Clouds
9:55 PM 71.6 °F - 68.0 °F 88% 29.83 in 10.0 mi Calm Calm - N/A   Clear
10:15 PM 69.8 °F - 68.0 °F 94% 29.83 in 10.0 mi Calm Calm - N/A   Clear
11:15 PM 69.8 °F - 68.0 °F 94% 29.83 in 10.0 mi Calm Calm - N/A   Clear
11:35 PM 69.8 °F - 68.0 °F 94% 29.83 in 10.0 mi Calm Calm - N/A   Clear
11:55 PM 69.8 °F - 68.0 °F 94% 29.83 in 10.0 mi ESE 4.6 mph - N/A   Clear